| time (UTC) | temp F | wind direction | speed MPH | gust MPH | rain 1hr in | rain 24hr in | rain mn in | humidity % | barometer mb |
| 20260507051541 | 48 | 240 | 0.0 | 3.0 | 0.00 | 0.15 | 0.02 | 92 | 1011.4 |
| 20260507050041 | 48 | 231 | 0.0 | 3.0 | 0.00 | 0.15 | 0.02 | 92 | 1011.3 |
| 20260507044535 | 48 | 224 | 0.0 | 4.0 | 0.00 | 0.15 | 0.02 | 92 | 1011.1 |
| 20260507043035 | 48 | 209 | 2.0 | 6.0 | 0.00 | 0.15 | 0.02 | 92 | 1011.1 |
| 20260507041547 | 48 | 192 | 0.0 | 5.0 | 0.00 | 0.15 | 0.02 | 92 | 1010.9 |
| 20260507040029 | 48 | 288 | 0.0 | 3.0 | 0.00 | 0.15 | 0.02 | 92 | 1010.7 |
| 20260507034528 | 48 | 261 | 0.0 | 4.0 | 0.00 | 0.15 | 0.02 | 92 | 1010.7 |
| 20260507033031 | 48 | 226 | 0.0 | 3.0 | 0.00 | 0.15 | 0.02 | 92 | 1010.6 |
| 20260507031525 | 48 | 238 | 0.0 | 3.0 | 0.00 | 0.15 | 0.02 | 92 | 1010.5 |
| 20260507030024 | 48 | 287 | 0.0 | 4.0 | 0.00 | 0.15 | 0.02 | 92 | 1010.5 |
| 20260507024522 | 49 | 269 | 0.0 | 7.0 | 0.00 | 0.15 | 0.02 | 92 | 1010.4 |
| 20260507023021 | 49 | 261 | 0.0 | 6.0 | 0.00 | 0.15 | 0.02 | 92 | 1010.4 |
| 20260507021519 | 49 | 246 | 0.0 | 3.0 | 0.00 | 0.15 | 0.02 | 92 | 1010.3 |
| 20260507020018 | 49 | 267 | 0.0 | 5.0 | 0.00 | 0.15 | 0.02 | 92 | 1010.2 |
| 20260507014523 | 50 | 271 | 0.0 | 4.0 | 0.00 | 0.15 | 0.02 | 92 | 1010.1 |
| 20260507013030 | 50 | 292 | 0.0 | 4.0 | 0.00 | 0.15 | 0.02 | 92 | 1010.0 |
| 20260507011528 | 50 | 234 | 1.0 | 10.0 | 0.01 | 0.15 | 0.02 | 92 | 1009.9 |
| 20260507010008 | 51 | 256 | 0.0 | 5.0 | 0.01 | 0.15 | 0.02 | 92 | 1009.8 |
| 20260507004507 | 51 | 249 | 0.0 | 5.0 | 0.01 | 0.15 | 0.02 | 92 | 1009.8 |
| 20260507003006 | 51 | 235 | 0.0 | 0.0 | 0.01 | 0.15 | 0.02 | 92 | 1009.8 |
| 20260507001508 | 51 | 270 | 0.0 | 4.0 | 0.00 | 0.14 | 0.01 | 92 | 1009.9 |
| 20260507000017 | 51 | 249 | 0.0 | 5.0 | 0.00 | 0.14 | 0.01 | 91 | 1009.9 |
| 20260506234504 | 51 | 233 | 0.0 | 6.0 | 0.01 | 0.14 | 0.01 | 92 | 1009.9 |
| 20260506233002 | 51 | 261 | 0.0 | 5.0 | 0.01 | 0.14 | 0.01 | 92 | 1009.8 |
| 20260506231501 | 51 | 159 | 0.0 | 4.0 | 0.01 | 0.14 | 0.01 | 91 | 1009.8 |
| 20260506224559 | 51 | 235 | 0.0 | 4.0 | 0.00 | 0.13 | 0.00 | 91 | 1009.7 |
| 20260506223120 | 51 | 257 | 1.0 | 5.0 | 0.00 | 0.13 | 0.00 | 91 | 1009.7 |
| 20260506221602 | 51 | 244 | 0.0 | 2.0 | 0.01 | 0.13 | 0.00 | 91 | 1009.6 |
| 20260506220054 | 52 | 250 | 0.0 | 4.0 | 0.01 | 0.13 | 0.00 | 91 | 1009.2 |
| 20260506214603 | 52 | 234 | 0.0 | 4.0 | 0.01 | 0.13 | 0.13 | 91 | 1009.3 |
| 20260506213052 | 52 | 250 | 0.0 | 7.0 | 0.01 | 0.13 | 0.13 | 91 | 1009.3 |
| 20260506211553 | 53 | 209 | 0.0 | 5.0 | 0.00 | 0.13 | 0.13 | 91 | 1009.2 |
| 20260506210048 | 53 | 256 | 0.0 | 3.0 | 0.00 | 0.13 | 0.13 | 90 | 1009.1 |
| 20260506204546 | 53 | 227 | 0.0 | 2.0 | 0.00 | 0.13 | 0.13 | 90 | 1008.8 |
| 20260506203047 | 53 | 265 | 0.0 | 0.0 | 0.00 | 0.13 | 0.13 | 90 | 1008.7 |
| 20260506201544 | 53 | 265 | 0.0 | 0.0 | 0.00 | 0.13 | 0.13 | 89 | 1008.5 |
| 20260506194541 | 53 | 316 | 0.0 | 0.0 | 0.09 | 0.13 | 0.13 | 89 | 1008.3 |
| 20260506193044 | 53 | 223 | 0.0 | 0.0 | 0.11 | 0.13 | 0.13 | 89 | 1008.4 |
| 20260506191540 | 54 | 219 | 0.0 | 0.0 | 0.11 | 0.13 | 0.13 | 89 | 1008.2 |
| 20260506190039 | 54 | 186 | 0.0 | 7.0 | 0.09 | 0.10 | 0.10 | 89 | 1007.9 |
| 20260506184538 | 54 | 350 | 0.0 | 5.0 | 0.02 | 0.04 | 0.04 | 88 | 1007.3 |
| 20260506183037 | 54 | 273 | 1.0 | 7.0 | 0.00 | 0.02 | 0.02 | 87 | 1007.4 |
| 20260506181539 | 55 | 244 | 0.0 | 4.0 | 0.00 | 0.02 | 0.02 | 86 | 1007.2 |
| 20260506180046 | 55 | 319 | 0.0 | 2.0 | 0.00 | 0.02 | 0.02 | 85 | 1006.7 |
| 20260506174536 | 56 | 292 | 0.0 | 5.0 | 0.00 | 0.02 | 0.02 | 85 | 1006.2 |
| 20260506173035 | 56 | 344 | 0.0 | 5.0 | 0.00 | 0.02 | 0.02 | 84 | 1005.9 |
| 20260506171547 | 56 | 273 | 1.0 | 6.0 | 0.00 | 0.02 | 0.02 | 83 | 1006.1 |
| 20260506170037 | 56 | 210 | 1.0 | 4.0 | 0.00 | 0.02 | 0.02 | 82 | 1006.2 |
| 20260506164537 | 57 | 329 | 0.0 | 3.0 | 0.00 | 0.07 | 0.02 | 81 | 1006.0 |
| 20260506163045 | 57 | 355 | 0.0 | 3.0 | 0.00 | 0.07 | 0.02 | 81 | 1005.9 |
| 20260506161547 | 58 | 57 | 0.0 | 1.0 | 0.00 | 0.07 | 0.02 | 80 | 1005.9 |
| 20260506160034 | 59 | 329 | 0.0 | 4.0 | 0.01 | 0.07 | 0.02 | 79 | 1006.1 |
| 20260506154533 | 60 | 344 | 0.0 | 1.0 | 0.02 | 0.17 | 0.02 | 77 | 1006.3 |
| 20260506153032 | 61 | 355 | 0.0 | 4.0 | 0.02 | 0.17 | 0.02 | 77 | 1006.4 |
| 20260506151532 | 61 | 302 | 0.0 | 3.0 | 0.02 | 0.17 | 0.02 | 73 | 1006.1 |
| 20260506150034 | 63 | 244 | 1.0 | 11.0 | 0.01 | 0.17 | 0.01 | 70 | 1006.0 |
| 20260506144530 | 63 | 325 | 0.0 | 0.0 | 0.00 | 0.16 | 0.00 | 67 | 1005.6 |
| 20260506143030 | 64 | 321 | 0.0 | 0.0 | 0.00 | 0.16 | 0.00 | 65 | 1005.7 |
| 20260506141530 | 65 | 321 | 0.0 | 2.0 | 0.00 | 0.16 | 0.00 | 65 | 1005.8 |
| 20260506140029 | 65 | 232 | 0.0 | 0.0 | 0.00 | 0.16 | 0.00 | 64 | 1005.7 |
| 20260506134603 | 65 | 221 | 0.0 | 0.0 | 0.00 | 0.16 | 0.00 | 63 | 1005.8 |
| 20260506133028 | 66 | 273 | 0.0 | 2.0 | 0.00 | 0.16 | 0.00 | 63 | 1005.9 |
| 20260506131528 | 66 | 255 | 0.0 | 0.0 | 0.00 | 0.16 | 0.00 | 61 | 1006.1 |
| 20260506130025 | 66 | 292 | 0.0 | 3.0 | 0.00 | 0.16 | 0.00 | 59 | 1006.1 |
| 20260506124523 | 67 | 264 | 0.0 | 3.0 | 0.00 | 0.16 | 0.00 | 59 | 1006.2 |
| 20260506123022 | 66 | 209 | 1.0 | 5.0 | 0.00 | 0.16 | 0.00 | 61 | 1006.3 |
| 20260506121517 | 65 | 293 | 0.0 | 3.0 | 0.00 | 0.16 | 0.00 | 62 | 1006.4 |
| 20260506120015 | 65 | 194 | 1.0 | 5.0 | 0.00 | 0.16 | 0.00 | 61 | 1006.4 |
| 20260506114523 | 64 | 116 | 0.0 | 5.0 | 0.00 | 0.16 | 0.00 | 66 | 1006.6 |
| 20260506113014 | 64 | 100 | 0.0 | 3.0 | 0.00 | 0.16 | 0.00 | 64 | 1006.6 |
| 20260506111512 | 65 | 99 | 0.0 | 6.0 | 0.00 | 0.16 | 0.00 | 63 | 1006.7 |
| 20260506110014 | 63 | 238 | 2.0 | 8.0 | 0.00 | 0.16 | 0.00 | 72 | 1006.9 |
| 20260506104505 | 62 | 223 | 0.0 | 5.0 | 0.00 | 0.16 | 0.00 | 72 | 1007.1 |
| 20260506103015 | 62 | 257 | 0.0 | 3.0 | 0.00 | 0.16 | 0.00 | 73 | 1007.1 |
| 20260506101504 | 62 | 227 | 1.0 | 5.0 | 0.00 | 0.16 | 0.00 | 73 | 1007.2 |
| 20260506100001 | 61 | 259 | 0.0 | 3.0 | 0.00 | 0.16 | 0.00 | 76 | 1007.1 |
| 20260506094559 | 61 | 290 | 0.0 | 5.0 | 0.00 | 0.16 | 0.00 | 76 | 1007.1 |
| 20260506093100 | 61 | 246 | 0.0 | 5.0 | 0.00 | 0.16 | 0.00 | 77 | 1007.3 |
| 20260506091555 | 60 | 186 | 0.0 | 3.0 | 0.00 | 0.16 | 0.00 | 80 | 1007.3 |
| 20260506090053 | 59 | 273 | 0.0 | 0.0 | 0.00 | 0.16 | 0.00 | 83 | 1007.2 |
| 20260506084551 | 59 | 217 | 0.0 | 3.0 | 0.00 | 0.16 | 0.00 | 83 | 1007.3 |
| 20260506083109 | 59 | 178 | 0.0 | 3.0 | 0.00 | 0.16 | 0.00 | 82 | 1007.5 |
| 20260506081551 | 59 | 261 | 1.0 | 6.0 | 0.00 | 0.16 | 0.00 | 85 | 1007.5 |
| 20260506073042 | 57 | 173 | 0.0 | 2.0 | 0.00 | 0.16 | 0.00 | 90 | 1007.1 |
| 20260506071538 | 55 | 223 | 0.0 | 2.0 | 0.00 | 0.16 | 0.00 | 91 | 1007.1 |
| 20260506061535 | 52 | 167 | 0.0 | 0.0 | 0.00 | 0.16 | 0.00 | 92 | 1007.2 |